Regional Weather Roundup
Issued by NWS

Home | Current Version | Previous Version | Text Only | Print | Product List | Glossary On
Versions: 1 2 3 4 5 6 7 8 9 10 11 12 13 14 15 16 17 18 19 20 21 22 23 24 25 26 27 28 29 30 31 32 33 34 35 36 37 38 39 40 41 42 43 44 45 46 47 48 49 50
000
ASUS45 KABQ 061310
RWRNM
WEATHER ROUNDUP FOR NEW MEXICO
NATIONAL WEATHER SERVICE ALBUQUERQUE NM
600 AM MST FRI MAR 06 2015

NOTE: "FAIR" MEANS FEW OR NO CLOUDS BELOW 12,000 FEET AGL WITH NO
       SIGNIFICANT WEATHER OR OBSTRUCTIONS TO VISION.

      THIS PRODUCT IS RELEASED AS TWO VERSIONS.  ONE VERSION NEAR
      THE TOP OF THE HOUR CONTAINING PRELIMINARY DATA FROM ALBUQUERQUE
      AND OTHER STATIONS.  A FINAL VERSION WITH ADDITIONAL DATA IS
      ISSUED ABOUT 10 MINUTES AFTER THE HOUR.

NMZ501-503-504-510>518-061400-
NORTHWEST PLATEAU/NORTHCENTRAL MOUNTAINS

CITY           SKY/WX    TMP DP  RH WIND       PRES   REMARKS
FARMINGTON     CLEAR     22  18  85 E7        30.38R WCI  13
LOS ALAMOS     CLEAR     29  11  47 N8        30.36S WCI  21
SANTA FE       CLEAR     23  13  65 N8        30.34R WCI  14
TAOS           PTCLDY    18   9  68 N5        30.38S WCI  11
ANGEL FIRE     FAIR      -6 -10  83 SE5       30.38S WCI -17

$$
NMZ402-403-502-505>509-061400-
WESTCENTRAL MOUNTAINS/SOUTHWEST MOUNTAINS

CITY           SKY/WX    TMP DP  RH WIND       PRES   REMARKS
GALLUP         CLEAR     20  13  74 E5        30.39R WCI  13
GRANTS         CLEAR     13  10  88 NW6       30.40S WCI   4
SILVER CITY    CLEAR     21  14  73 N7        30.34R WCI  13

$$
NMZ407-409-411-412-061400-
SOUTHERN DESERTS

CITY           SKY/WX    TMP DP  RH WIND       PRES   REMARKS
LORDSBURG      FAIR      30  19  64 SE8       30.32S WCI  23
DEMING         CLEAR     28  21  75 E9        30.35R WCI  19
LAS CRUCES     CLEAR     26  20  80 N5        30.36R WCI  20
HOLLOMAN AFB   CLEAR     26  21  81 N5        30.36R WCI  20
ALAMOGORDO     CLEAR     27  21  80 N6        30.37S WCI  20
T OR C         CLEAR     28  16  60 NW3       30.36R

$$
NMZ519>523-061400-
CENTRAL VALLEYS/CENTRAL HIGHLANDS

CITY           SKY/WX    TMP DP  RH WIND       PRES   REMARKS
ALBUQUERQUE    CLEAR     32  14  47 N6        30.38R WCI  26
DOUBLE EAGLE   CLEAR     27  12  54 NW6       30.37R WCI  20
MORIARTY ARPT  FAIR      14   9  83 N5        30.36R WCI   6
CLINES CORNERS PTCLDY    26  12  55 NW15      30.31R WCI  14
BELEN          FAIR      20  13  77 NW5       30.37S WCI  13
SOCORRO          N/A     25  16  70 W3        30.38R

$$
NMZ524>526-539-540-061400-
SOUTHCENTRAL MOUNTAINS

CITY           SKY/WX    TMP DP  RH WIND       PRES   REMARKS
RUIDOSO        CLEAR     25   5  42 S5        30.37R WCI  19

$$
NMZ527>531-061400-
NORTHEAST HIGHLANDS/NORTHEAST PLAINS

CITY           SKY/WX    TMP DP  RH WIND       PRES   REMARKS
LAS VEGAS      PTCLDY    24  10  55 N7        30.32R WCI  16
RATON          CLEAR     17  13  84 NE6       30.30S WCI   9
CLAYTON        CLEAR     34  18  52 NW7       30.29R WCI  28

$$
NMZ532>537-061400-
EASTCENTRAL PLAINS

CITY           SKY/WX    TMP DP  RH WIND       PRES   REMARKS
TUCUMCARI      CLEAR     22  19  89 SW6       30.33R WCI  14
CANNON AFB     PTCLDY    22  20  93 NW7       30.34S WCI  14
CLOVIS AIRPORT PTCLDY    19  18  93 W7        30.34S WCI  10

$$
NMZ028-029-538-061400-
SOUTHEAST PLAINS

CITY           SKY/WX    TMP DP  RH WIND       PRES   REMARKS
ROSWELL        FOG       24  22  91 S5        30.39R VSB 1/2 WCI  18
ARTESIA        FOG       25  25 100 CALM      30.40R VSB<1/4
CARLSBAD       FOG       21  17  84 CALM      30.39R VSB<1/4
HOBBS          CLEAR     23  23 100 CALM      30.40R


$$


USA.gov is the U.S. government's official web portal to all federal, state and local government web resources and services.